Hourly Weather Rusia

Today, 20 April, Tuesday

Time Temperature Precipitation Wind Pressure Humidity
00:00 +7°C° 0 mm 2 mps 749 mmHg 68%
01:00 +8°C° 0 mm 1 mps 749 mmHg 69%
02:00 +8°C° 0 mm 1 mps 749 mmHg 70%
03:00 +8°C° 0 mm 1 mps 749 mmHg 71%
04:00 +9°C° 0 mm 1 mps 749 mmHg 72%
05:00 +8°C° 0 mm 0 mps 749 mmHg 71%
06:00 +9°C° 0 mm 0 mps 749 mmHg 69%
07:00 +10°C° 0 mm 0 mps 749 mmHg 68%
08:00 +12°C° 0.1 mm 1 mps 748 mmHg 63%
09:00 +14°C° 0.1 mm 1 mps 748 mmHg 57%
10:00 +15°C° 0.1 mm 1 mps 748 mmHg 51%
11:00 +15°C° 0.1 mm 1 mps 748 mmHg 49%
12:00 +16°C° 0.1 mm 2 mps 747 mmHg 47%
13:00 +16°C° 0.1 mm 2 mps 747 mmHg 44%
14:00 +15°C° 0 mm 2 mps 747 mmHg 47%
15:00 +15°C° 0 mm 2 mps 747 mmHg 50%
16:00 +15°C° 0 mm 2 mps 747 mmHg 52%
17:00 +13°C° 0.1 mm 2 mps 746 mmHg 60%
18:00 +10°C° 0.1 mm 2 mps 746 mmHg 68%
19:00 +9°C° 0.1 mm 2 mps 746 mmHg 76%
20:00 +8°C° 0 mm 2 mps 746 mmHg 76%
21:00 +8°C° 0 mm 2 mps 746 mmHg 77%
22:00 +7°C° 0 mm 2 mps 746 mmHg 77%
23:00 +8°C° 0 mm 1 mps 746 mmHg 77%

Tomorrow, 21 April, Wednesday

Time Temperature Precipitation Wind Pressure Humidity
00:00 +7°C° 0 mm 1 mps 746 mmHg 77%
01:00 +7°C° 0 mm 1 mps 746 mmHg 77%
02:00 +7°C° 0 mm 1 mps 745 mmHg 77%
03:00 +6°C° 0 mm 1 mps 745 mmHg 77%
04:00 +6°C° 0 mm 1 mps 745 mmHg 77%
05:00 +7°C° 0 mm 1 mps 745 mmHg 74%
06:00 +8°C° 0 mm 2 mps 745 mmHg 70%
07:00 +9°C° 0 mm 2 mps 745 mmHg 67%
08:00 +10°C° 0 mm 2 mps 745 mmHg 59%
09:00 +13°C° 0 mm 2 mps 745 mmHg 52%
10:00 +13°C° 0 mm 3 mps 744 mmHg 44%
11:00 +14°C° 0 mm 3 mps 744 mmHg 43%
12:00 +14°C° 0 mm 3 mps 744 mmHg 42%
13:00 +16°C° 0 mm 3 mps 744 mmHg 40%
14:00 +14°C° 0 mm 4 mps 743 mmHg 43%
15:00 +14°C° 0 mm 4 mps 743 mmHg 45%
16:00 +13°C° 0 mm 5 mps 743 mmHg 47%
17:00 +12°C° 0 mm 5 mps 743 mmHg 56%
18:00 +9°C° 0 mm 5 mps 743 mmHg 64%
19:00 +7°C° 0 mm 5 mps 743 mmHg 72%
20:00 +6°C° 0.1 mm 5 mps 743 mmHg 71%
21:00 +6°C° 0.1 mm 5 mps 743 mmHg 70%
22:00 +5°C° 0.1 mm 5 mps 743 mmHg 69%
23:00 +3°C° 0 mm 5 mps 743 mmHg 69%

Day after tomorrow, 22 April, Thursday

Time Temperature Precipitation Wind Pressure Humidity
00:00 +3°C° 0 mm 5 mps 743 mmHg 70%
01:00 +2°C° 0 mm 5 mps 743 mmHg 70%
02:00 +1°C° 0 mm 6 mps 743 mmHg 73%
03:00 +1°C° 0 mm 6 mps 743 mmHg 76%
04:00 -1°C° 0 mm 7 mps 743 mmHg 79%
05:00 0°C° 0 mm 7 mps 743 mmHg 76%
06:00 0°C° 0 mm 7 mps 743 mmHg 73%
07:00 +1°C° 0 mm 8 mps 743 mmHg 70%
08:00 +2°C° 0 mm 8 mps 743 mmHg 65%
09:00 +4°C° 0 mm 8 mps 743 mmHg 60%
10:00 +5°C° 0 mm 8 mps 744 mmHg 54%
11:00 +5°C° 0 mm 8 mps 744 mmHg 49%
12:00 +6°C° 0 mm 8 mps 744 mmHg 43%
13:00 +6°C° 0 mm 9 mps 744 mmHg 37%
14:00 +6°C° 0 mm 8 mps 745 mmHg 41%
15:00 +5°C° 0 mm 8 mps 745 mmHg 45%
16:00 +4°C° 0 mm 8 mps 745 mmHg 48%
17:00 +3°C° 0 mm 7 mps 745 mmHg 51%
18:00 +3°C° 0 mm 6 mps 746 mmHg 53%
19:00 +2°C° 0 mm 5 mps 746 mmHg 55%
20:00 +2°C° 0 mm 5 mps 746 mmHg 57%
21:00 +2°C° 0 mm 5 mps 746 mmHg 58%
22:00 +1°C° 0 mm 5 mps 746 mmHg 60%
23:00 +1°C° 0 mm 5 mps 746 mmHg 62%

23 April, Friday

Time Temperature Precipitation Wind Pressure Humidity
00:00 +1°C° 0 mm 5 mps 746 mmHg 64%
01:00 +1°C° 0 mm 5 mps 746 mmHg 66%
02:00 +1°C° 0 mm 5 mps 746 mmHg 66%
03:00 +1°C° 0 mm 5 mps 746 mmHg 66%
04:00 0°C° 0 mm 5 mps 747 mmHg 66%
05:00 +1°C° 0 mm 5 mps 747 mmHg 65%
06:00 +1°C° 0 mm 6 mps 747 mmHg 65%
07:00 +2°C° 0 mm 6 mps 747 mmHg 64%
08:00 +3°C° 0.1 mm 6 mps 747 mmHg 57%
09:00 +3°C° 0.1 mm 6 mps 748 mmHg 50%
10:00 +4°C° 0.1 mm 7 mps 748 mmHg 42%
11:00 +4°C° 0 mm 7 mps 748 mmHg 42%
12:00 +4°C° 0 mm 7 mps 748 mmHg 41%
13:00 +5°C° 0 mm 7 mps 748 mmHg 40%
14:00 +5°C° 0 mm 7 mps 749 mmHg 40%
15:00 +4°C° 0 mm 7 mps 749 mmHg 39%
16:00 +4°C° 0 mm 6 mps 750 mmHg 38%
17:00 +3°C° 0 mm 6 mps 750 mmHg 40%
18:00 +3°C° 0 mm 5 mps 750 mmHg 42%
19:00 +3°C° 0 mm 4 mps 750 mmHg 44%
20:00 +1°C° 0 mm 5 mps 750 mmHg 49%
21:00 +1°C° 0 mm 5 mps 750 mmHg 54%
22:00 +1°C° 0 mm 6 mps 750 mmHg 59%
23:00 +1°C° 0 mm 5 mps 750 mmHg 61%

24 April, Saturday

Time Temperature Precipitation Wind Pressure Humidity
00:00 0°C° 0 mm 5 mps 750 mmHg 63%
01:00 0°C° 0 mm 5 mps 750 mmHg 66%
02:00 0°C° 0 mm 5 mps 750 mmHg 67%
03:00 0°C° 0 mm 5 mps 750 mmHg 69%
04:00 -1°C° 0 mm 5 mps 750 mmHg 71%
05:00 0°C° 0 mm 5 mps 750 mmHg 68%
06:00 +1°C° 0 mm 5 mps 750 mmHg 64%
07:00 +2°C° 0 mm 6 mps 750 mmHg 61%
08:00 +4°C° 0 mm 6 mps 750 mmHg 53%
09:00 +5°C° 0 mm 6 mps 749 mmHg 45%
10:00 +6°C° 0 mm 7 mps 749 mmHg 37%
11:00 +6°C° 0 mm 7 mps 749 mmHg 35%
12:00 +6°C° 0 mm 8 mps 749 mmHg 33%
13:00 +6°C° 0 mm 8 mps 749 mmHg 32%
14:00 +6°C° 0 mm 8 mps 750 mmHg 32%
15:00 +5°C° 0 mm 7 mps 750 mmHg 33%
16:00 +4°C° 0 mm 7 mps 750 mmHg 33%
17:00 +3°C° 0 mm 5 mps 750 mmHg 37%
18:00 +3°C° 0 mm 4 mps 750 mmHg 41%
19:00 +3°C° 0 mm 2 mps 750 mmHg 45%
20:00 +2°C° 0 mm 3 mps 750 mmHg 51%
21:00 +1°C° 0 mm 3 mps 750 mmHg 58%
22:00 0°C° 0 mm 3 mps 750 mmHg 64%
23:00 0°C° 0 mm 3 mps 749 mmHg 68%

25 April, Sunday

Time Temperature Precipitation Wind Pressure Humidity
00:00 0°C° 0 mm 3 mps 749 mmHg 71%
01:00 0°C° 0 mm 3 mps 749 mmHg 75%
02:00 -1°C° 0 mm 4 mps 749 mmHg 75%
03:00 -1°C° 0 mm 4 mps 748 mmHg 76%
04:00 -2°C° 0 mm 4 mps 748 mmHg 76%
05:00 0°C° 0 mm 4 mps 748 mmHg 71%
06:00 +1°C° 0 mm 5 mps 749 mmHg 67%
07:00 +2°C° 0 mm 5 mps 749 mmHg 62%
08:00 +2°C° 0 mm 5 mps 749 mmHg 58%
09:00 +3°C° 0 mm 6 mps 749 mmHg 54%
10:00 +3°C° 0 mm 6 mps 749 mmHg 51%
11:00 +4°C° 0.1 mm 6 mps 749 mmHg 53%
12:00 +4°C° 0.1 mm 6 mps 749 mmHg 55%
13:00 +4°C° 0.1 mm 6 mps 749 mmHg 57%
14:00 +3°C° 0.2 mm 6 mps 749 mmHg 59%
15:00 +3°C° 0.2 mm 6 mps 749 mmHg 62%
16:00 +3°C° 0.2 mm 6 mps 750 mmHg 65%
17:00 +2°C° 0.1 mm 5 mps 749 mmHg 68%
18:00 +1°C° 0.1 mm 4 mps 749 mmHg 72%
19:00 +1°C° 0.1 mm 3 mps 749 mmHg 76%
20:00 +1°C° 0 mm 3 mps 749 mmHg 78%
21:00 +1°C° 0 mm 2 mps 749 mmHg 80%
22:00 -1°C° 0 mm 2 mps 749 mmHg 82%
23:00 -1°C° 0 mm 2 mps 749 mmHg 82%
Show more